Location: *
(45.5667°S, 177.5167°W)
Time: 11:05:23
(UTC+00:00)

X-37B - Visible Passes

Search period start: 09 August 2022 00:00
Search period end: 19 August 2022 00:00
Orbit: 328 x 343 km, 45.0° (Epoch: 27 July)

Date Brightness Start Highest point End Pass type
(mag) Time Alt. Az. Time Alt. Az. Time Alt. Az.
09 Aug 2.0 06:22:22 10° W 06:24:56 29° NNW 06:26:12 20° NNE visible
10 Aug 3.0 06:43:25 10° WNW 06:45:07 15° NNW 06:46:12 12° N visible
11 Aug 2.2 05:27:49 10° W 05:30:23 29° NNW 05:32:56 10° NE visible
12 Aug 3.3 05:48:51 10° WNW 05:50:35 15° NNW 05:52:18 10° N visible
